Location: Falkner
(32.6954°N, 86.0502°W)
Time: 11:46:00
(UTC+00:00)

NOSS 3-3 (A) - Pass Details

Date: 29 October 2020
Orbit: 819 x 1393 km, 63.4° (Epoch: 29 November)

Event Time Altitude Azimuth Distance (km) Brightness Sun altitude
Rises 23:20:58 0° 204° (SSW) 3,337 7.4 -6.0°
Reaches altitude 10° 23:23:20 10° 202° (SSW) 2,426 6.6 -6.5°
Maximum altitude 23:28:51 76° 118° (ESE) 900 3.8 -7.6°
Drops below altitude 10° 23:34:59 10° 33° (NNE) 2,674 5.9 -8.9°
Sets 23:37:41 0° 32° (NNE) 3,704 6.6 -9.5°
